Temp_Advection
nan nan nan nan nan nan nan nan nan nan nan nan nan nan nan nan nan nan nan nan nan nan nan nan nan nan nan nan nan nan nan nan nan nan nan nan nan nan nan nan nan nan nan nan nan nan nan nan nan nan nan nan nan nan nan nan nan nan nan nan nan nan nan nan nan nan nan nan nan nan nan nan nan nan nan nan nan nan nan nan nan nan nan nan nan
nan -1 -1 -0 -0 -0 -0 -0 -0 -1 -1 -0 0 0 0 0 0 -0 -0 0 0 0 -0 0 0 0 0 -0 -0 -0 -0 0 -0 -0 -0 -0 0 0 -0 -1 -0 -0 -0 -0 0 0 -0 0 0 0 0 -0 -1 -0 0 0 0 0 0 0 0 0 0 0 0 -0 -0 -0 0 0 -0 -0 -0 -0 -0 -0 -0 -0 -0 0 0 -0 0 0 nan
nan -1 -1 -0 -0 -0 -0 -0 -0 -1 -1 -0 0 -0 0 0 -0 -0 0 0 0 0 -0 -0 0 0 0 -0 -0 -0 -0 -0 -0 -0 -0 -0 0 0 -1 -1 -0 -0 -0 0 0 0 -0 0 0 -0 -0 -0 0 0 0 0 0 0 0 0 0 0 0 0 -0 -0 0 -0 -0 -0 -0 -0 -0 -0 -0 0 0 -0 -0 0 0 -0 -0 0 nan
nan -0 -0 -0 -0 -0 -0 -0 -0 -0 -1 -0 -0 -0 -0 0 -0 -0 -0 1 0 -0 -0 0 0 0 -0 -0 -0 -0 -0 -0 -0 -0 -0 -0 0 0 -1 -0 -0 0 0 0 0 -0 0 0 0 0 0 0 0 1 0 -0 0 0 0 0 0 0 -0 0 0 -0 -0 -0 -0 -0 -0 -0 -0 -1 -0 0 0 -0 -0 -0 -0 -0 -0 -0 nan
nan -0 -0 -0 -0 -0 -0 -0 -0 -0 -1 -1 -0 -0 -0 -0 -0 -0 -0 0 0 -0 -0 0 0 0 0 -0 -0 0 0 0 -0 -0 0 0 0 -0 0 0 1 1 0 -0 -0 0 0 0 0 0 0 0 0 0 -0 0 0 0 0 0 0 -0 -0 -0 0 0 -0 -0 -0 -0 -0 -0 -0 -0 -1 -0 -0 -0 -0 -0 -0 -0 -0 -0 nan
nan -0 -0 -0 0 -0 -0 -0 -0 -0 -0 -0 -0 -0 -0 -0 -0 -0 -0 0 -0 -0 0 0 -0 0 0 -0 0 0 0 0 0 0 0 0 0 0 1 0 0 0 -0 -0 0 0 0 0 0 0 0 0 0 -0 0 0 0 -0 -0 0 0 -0 -0 0 1 0 0 0 0 0 0 0 0 0 -0 -0 -0 -0 -0 -0 -0 -0 -0 -0 nan
nan -0 -0 0 0 0 -0 -0 -0 -0 -0 -0 -0 -0 -0 -0 -0 -0 -0 0 -0 -0 -0 0 0 -0 -0 -0 0 0 0 0 0 0 0 0 1 0 0 -0 -0 -0 -0 -0 0 -0 -0 0 0 0 0 0 -0 -0 -0 0 -0 -0 0 0 0 -0 0 0 0 0 0 0 0 0 0 0 0 0 0 -0 -0 -0 -0 -0 -0 -0 -0 -0 nan
nan -0 -0 -0 -0 -0 -0 -0 -0 -0 -0 -0 -0 -0 -0 -0 -0 -0 -0 -0 -0 -0 -0 -0 0 -0 -0 0 0 0 0 0 0 0 0 0 0 0 -0 -0 -0 0 -0 0 0 -0 0 0 -0 -0 -0 -0 -0 -0 -0 0 -0 0 0 0 -0 0 0 -0 -0 -0 -0 0 0 0 0 0 0 0 0 0 0 0 0 0 -0 -0 -0 -0 nan
nan -0 -0 -0 -1 -1 -0 -0 -0 0 0 0 -0 -0 -0 -0 -0 -0 -0 -0 -0 -0 -0 -0 -0 -0 0 0 0 0 0 0 0 0 0 0 -0 -0 -0 -0 0 0 0 0 0 0 0 0 -0 -0 -0 -0 0 0 0 -0 0 0 0 0 0 0 1 0 -0 -0 0 0 0 0 0 0 0 -0 0 0 0 0 0 0 0 0 0 -0 nan
nan -0 -0 -0 -1 -1 -0 -0 -0 0 0 0 0 0 -0 -0 -0 -0 -0 -0 -0 -0 -0 -0 -0 -0 0 0 0 -0 0 0 0 0 0 0 0 -0 -0 -0 0 0 -0 0 0 0 0 0 0 0 0 0 0 0 0 0 0 0 0 0 0 0 1 0 -0 0 0 0 -0 -0 -0 0 0 0 0 0 0 0 0 0 0 0 0 -0 nan
nan -0 -0 -0 -0 -0 -0 -0 -0 -0 -0 0 0 0 0 0 0 0 -0 -0 -0 -0 -0 -0 0 0 0 0 0 0 0 0 0 0 0 0 0 -0 -0 0 0 -0 -0 0 0 0 0 0 0 0 0 0 0 0 0 0 0 0 0 0 0 0 0 0 -0 0 0 0 -0 -0 0 0 0 0 0 0 0 0 0 0 0 0 0 0 nan
nan -1 -1 -0 -0 0 0 -0 -0 -0 -0 -0 -0 -0 0 0 0 -0 -0 -0 0 -0 -0 -0 0 0 0 0 0 0 0 0 0 0 0 0 0 0 0 0 -0 -0 -0 0 0 0 0 0 0 0 0 0 0 0 0 0 0 0 -0 -0 0 0 -0 -0 -0 -0 0 0 0 0 0 0 0 0 0 0 0 0 0 0 0 0 1 1 nan
nan -1 -0 -0 0 0 0 -0 -0 -0 -0 -0 -0 -0 0 -0 -1 -1 -1 -0 -0 -0 -0 -0 0 0 0 0 0 0 0 0 0 0 0 0 0 0 0 0 -0 -0 0 0 0 0 0 0 0 0 0 0 0 0 0 0 -0 0 0 -0 -0 -0 -0 -0 0 -0 -0 0 0 0 0 0 0 0 0 0 0 0 0 0 0 0 1 1 nan
nan -0 -0 -0 0 0 0 -0 -0 -0 -0 0 0 0 -0 -1 -1 -1 -0 -0 0 -0 -0 -0 -0 0 0 0 0 0 0 -0 0 0 0 0 -0 0 0 0 0 0 0 0 0 0 0 0 0 0 0 0 0 0 0 0 0 0 0 0 0 0 0 0 0 0 0 0 0 0 -0 -0 0 -0 -0 0 0 0 0 0 0 0 1 0 nan
nan -0 -0 -0 -0 -0 -0 0 0 -0 0 1 0 -0 -1 -1 -1 -0 0 0 0 0 0 -0 -0 0 0 0 0 0 0 0 0 0 0 -0 0 0 0 0 0 0 0 0 0 0 0 0 0 1 1 0 0 0 0 0 0 0 0 0 0 0 0 0 0 0 0 0 0 -0 -0 0 0 0 0 1 0 0 0 0 0 0 0 0 nan
nan -0 -1 -0 -0 -0 -0 0 -0 -0 0 0 0 -0 -0 -1 -0 0 0 0 -0 0 0 0 0 0 0 0 0 -0 0 0 0 0 0 -0 0 0 0 -0 0 0 0 0 0 0 0 0 0 0 1 1 1 0 0 0 0 0 0 0 0 0 0 0 0 0 0 0 0 0 0 0 0 0 0 0 0 0 0 0 0 0 0 0 nan
nan -1 -1 -0 -0 -0 -0 -0 -0 -0 -0 -0 -0 -0 -0 -0 -0 -0 0 0 0 0 0 0 0 0 0 0 0 0 -0 0 0 0 0 -0 -0 0 -0 -0 -0 0 0 0 0 0 0 0 0 0 0 1 1 0 0 0 0 0 0 0 0 0 0 0 0 0 0 0 0 0 0 0 0 0 0 0 0 0 0 0 0 0 0 0 nan
nan -1 -0 -0 -0 0 -0 -0 0 0 -0 -0 -1 -0 -1 -1 -0 -0 0 0 0 -0 -0 -0 0 -0 -0 0 0 -0 -0 0 0 0 0 -0 -0 0 -0 -0 0 0 0 0 0 0 0 0 0 0 0 0 0 0 0 0 0 0 0 0 0 0 0 0 0 0 0 0 0 0 0 0 0 0 0 0 0 0 0 0 0 0 0 0 nan
nan -0 -0 -0 0 0 -0 0 0 0 -0 -0 -1 -0 -1 -1 -0 0 0 0 -0 -0 -0 -0 -0 -0 -0 -0 0 0 -0 -0 0 0 0 -0 -0 -0 -0 -0 -0 0 -0 0 0 0 0 0 0 0 0 0 0 0 0 0 0 0 0 0 -0 -0 0 0 0 0 0 0 0 0 0 0 0 0 0 0 0 0 0 0 0 0 0 0 nan
nan -0 -0 -0 -0 0 1 1 0 -0 -0 0 -0 0 0 -0 0 0 0 -0 -0 -0 -0 -0 -0 -0 -0 -0 -0 0 0 -0 -0 -0 -0 -0 -0 -0 -0 -0 -0 -0 0 0 -0 -0 0 0 0 0 0 0 0 0 0 0 0 0 0 0 -0 -0 0 0 0 0 0 0 0 0 0 0 0 0 0 0 0 0 0 0 0 0 0 -0 nan
nan -0 -0 -0 -0 0 1 1 -0 -0 -0 0 0 0 0 0 0 0 -0 -0 0 0 -0 -0 -0 -0 -0 -0 -0 0 0 0 0 -0 -0 -0 -0 -0 -0 -0 -0 -0 -0 0 -0 0 0 0 0 0 0 0 0 0 0 0 0 0 0 0 0 0 0 0 0 0 0 0 0 0 0 0 0 0 0 0 0 0 0 0 0 0 0 0 nan
nan -1 -0 0 0 0 0 -0 -0 -0 -0 0 0 -0 -0 0 0 -0 -0 -0 -0 -0 -0 -0 -0 -0 -0 -0 -0 -0 -0 -0 0 0 0 -0 -0 -0 -0 -0 -0 0 0 0 0 0 0 -0 -0 0 0 -0 -0 -0 0 0 0 0 0 0 0 0 0 0 0 0 0 0 0 0 0 0 0 -0 -0 -0 0 0 0 0 0 0 0 0 nan
nan -1 -0 -0 0 0 0 -0 -0 -0 -0 -0 -0 -0 -0 -0 -0 -0 -0 -0 -0 -0 -0 -0 -0 -0 -0 -0 -0 -0 -0 -0 -0 0 0 0 0 -0 -0 -0 -0 -0 0 0 0 0 0 0 0 0 0 -0 -0 0 0 0 -0 0 0 0 0 0 0 0 0 0 0 0 0 0 -0 -0 -0 -0 -0 -0 -0 -0 0 0 0 0 0 0 nan
nan -0 -0 -0 -0 -0 0 0 -0 -0 -0 -0 -0 -0 -0 -0 -0 -0 -0 -0 -0 -0 -0 -0 -0 -0 -0 -0 -0 -0 -0 -0 -0 -0 -0 -0 -0 -0 -0 -0 -0 -0 -0 -0 0 0 0 0 0 0 0 0 0 0 0 -0 0 0 0 0 0 0 0 0 0 0 -0 0 0 0 0 0 -0 0 0 0 0 -0 -0 0 0 0 0 0 nan
nan -0 -0 -0 -0 -0 0 0 -0 -0 -0 -0 -0 -0 -0 -0 -0 -0 -0 -0 -0 -0 -0 -1 -1 -0 -0 -0 -0 -0 -0 -0 -0 -0 -0 -0 -0 -0 -0 -0 -0 -0 -0 -0 0 0 0 0 0 0 0 -0 0 0 0 0 0 0 0 0 0 0 0 -0 -0 -0 0 0 0 0 0 0 0 0 0 0 -0 -0 -0 -0 -0 -0 0 0 nan
nan -0 0 0 0 -0 0 0 0 -0 -0 -0 0 0 0 0 -0 -0 -0 -1 -0 -0 -0 -1 -1 -1 -1 -1 -0 -0 -0 -0 -0 -0 -0 -0 -0 -1 -1 -1 -0 -0 -0 -0 -0 0 0 0 0 0 0 0 0 0 0 0 0 0 -0 -0 -0 -0 -0 -0 -0 0 0 0 0 0 0 0 0 0 0 0 -0 -0 -0 0 -0 -0 -0 -0 nan
nan -0 0 0 0 -0 -0 0 0 0 -0 -0 0 1 1 0 0 -0 -0 -0 -0 -0 -0 -0 -0 -0 -0 -0 -0 -0 -0 -0 -0 -0 -0 -0 -0 -0 -0 -0 -0 -0 -0 -0 -0 -0 -0 -0 -0 -0 -0 -0 0 0 -0 -0 0 -0 -0 -0 -0 -0 -0 0 -0 -0 -0 0 0 0 0 0 0 0 0 0 0 0 0 0 0 0 0 0 nan
nan -0 -0 -0 0 -0 -0 -0 0 0 0 -0 -0 -0 -0 -0 -1 -1 -1 -1 -0 -0 -0 -0 -1 -0 0 0 0 0 0 -0 -0 -0 -1 -0 -0 -0 -0 -0 -0 -0 -0 -0 -0 -0 -0 -0 -0 -0 -0 -0 0 -0 -0 -0 -0 -0 -0 -0 0 0 -0 -0 -0 -0 0 0 0 0 0 0 0 0 0 0 0 0 0 0 0 0 0 0 nan
nan 0 -0 -0 -0 -0 -0 -0 -0 -0 -0 -0 -1 -1 -1 -1 -1 -1 -1 -1 -1 -0 -0 -0 -1 -0 0 0 -0 -0 -0 -0 -1 -1 -0 -0 -0 -0 -0 -0 -0 -0 -0 -0 -0 -0 -0 -0 -0 -0 -0 0 0 -0 -0 -0 -0 0 0 0 0 -0 -0 -0 -0 -0 0 0 0 0 0 0 0 0 0 0 0 0 0 0 0 0 0 0 nan
nan -0 -0 -0 0 0 -0 -0 -0 -0 -0 -0 -0 -1 -1 -1 -1 -1 -1 -1 -1 -1 -1 -1 -1 -0 -0 -0 -0 -0 -0 -0 -0 -0 -0 -0 -0 -0 -0 -0 -0 -0 -0 -0 -0 -0 -0 -0 -0 -0 0 0 0 0 0 0 -0 -0 -0 -0 -0 -0 -0 -0 -0 0 0 0 0 0 0 0 0 -0 -0 0 0 0 0 0 0 0 0 0 nan
nan -0 -0 -0 0 0 -0 -0 -0 -0 -0 -0 -0 -0 -0 -0 -0 -0 -0 -0 -0 -0 -1 -1 -0 -0 -0 -1 -0 -0 -0 -0 -0 -0 -0 -0 -0 -0 -0 -0 -0 -0 -0 -0 -0 -0 -0 -0 -0 -0 0 0 0 -0 -0 -0 -0 -0 -0 -0 -0 -0 -0 -0 -0 0 0 0 0 0 0 0 0 0 0 0 0 0 0 0 0 0 0 0 nan
nan -0 -0 -0 0 0 -0 -0 -0 -0 -0 -0 -0 -0 -0 0 0 0 0 0 0 0 -0 -0 -0 -0 -0 -0 -0 -0 -0 -0 -0 -0 -0 -0 -0 -0 -0 -0 -0 -0 -0 -0 -0 -0 -0 -0 -0 -0 -0 -0 -0 -0 -0 -0 -0 -0 -0 -0 -0 -0 -0 -0 -0 -0 -0 0 0 0 0 0 0 0 0 0 0 0 0 0 0 0 0 0 nan
nan 0 0 -0 -0 -0 -0 -0 -0 -0 -0 -0 -0 -0 -0 -0 -0 0 0 1 1 1 0 -0 -0 -0 -0 -0 -0 -0 -0 -0 -0 -0 -0 -0 -0 -0 -0 -0 -0 -0 -0 -0 -0 -0 -0 -0 -0 -0 -0 -0 -0 -0 -0 -0 -0 -0 -0 -0 -0 -0 -0 -0 0 0 0 0 0 0 0 0 0 0 0 0 0 0 0 0 0 0 0 0 nan
nan 0 0 0 -0 -0 -0 -0 -0 -0 -0 -0 -0 -0 -0 -0 -0 -0 -0 0 0 1 0 0 -0 -0 -0 -0 -0 -0 -0 -0 -0 -0 -0 -0 0 0 0 0 -0 -0 -0 -0 -0 -0 -0 -0 -0 -0 -0 -0 -0 -0 -0 -0 -0 -0 -0 -0 -0 0 -0 -0 0 0 0 0 0 0 0 0 0 0 0 0 0 0 0 0 0 0 0 -0 nan
nan -0 -0 -0 -0 -0 -0 -0 -0 -0 -0 -0 -0 -0 -0 -0 -0 -0 -0 -0 0 -0 -0 -0 -0 -0 -0 -0 -0 -0 -0 -0 -0 -0 -0 0 0 0 0 -0 -0 -0 -0 -0 -0 -0 -0 -0 -0 -0 -0 -0 -0 -0 -0 -0 -0 -0 -0 0 -0 -0 0 0 0 0 0 0 0 0 0 0 0 0 -0 0 0 0 0 0 0 0 0 0 nan
nan -0 -0 -0 -0 -0 -0 -0 -0 -0 -0 -0 -0 -0 -0 -0 -0 -0 -0 -0 -0 -0 -1 -0 -0 -0 0 -0 -0 -0 -0 -0 -0 -0 -0 0 0 -0 -0 -0 -0 -0 -0 -0 -0 -0 -0 -0 -0 -0 -0 -0 -0 -0 -0 -0 -0 -0 -0 -0 -0 0 0 0 0 0 0 0 0 0 0 0 0 0 0 0 0 0 0 0 0 0 0 0 nan
nan -0 0 0 -0 -0 -0 -0 -0 0 0 -0 -0 -0 -0 -0 -0 -0 -0 -0 0 -0 -0 -1 -1 -0 -0 -0 -0 -0 -0 -0 -0 -0 -0 0 0 -0 -0 -0 -0 -0 -0 -0 -0 -0 -0 -0 -0 -0 -0 -0 -0 -0 -0 -0 -0 -0 0 0 0 0 0 0 0 0 0 0 0 0 0 0 0 0 0 0 0 0 0 0 0 0 0 0 nan
nan 0 0 0 -0 -0 -0 -0 0 0 0 -0 -0 -0 -0 0 0 -0 -0 0 0 -0 -0 -1 -1 -1 -1 -0 -0 0 0 0 0 -0 0 0 0 -0 -0 -0 -0 -0 -0 -0 -0 -0 -0 -0 -0 -0 -0 -0 -0 -0 -0 -0 -0 -0 -0 0 0 0 0 0 0 0 0 -0 -0 0 0 0 0 0 0 0 -0 -0 -0 0 0 0 0 0 nan
nan -0 0 0 0 0 0 -0 0 0 0 -0 -0 -0 0 0 -0 -0 -0 0 0 -0 -0 -0 -1 -1 -0 -0 0 0 0 0 0 0 0 0 -0 -0 -0 -0 -0 -0 -0 -0 -0 -0 -0 -0 -0 -0 -0 -0 -0 -0 -0 -0 -0 -0 -0 0 0 0 0 0 0 0 0 0 -0 0 -0 -0 -0 -0 0 0 0 0 0 0 0 0 -0 -0 nan
nan 0 0 0 0 0 0 0 -0 -0 -0 -0 -0 -0 0 0 0 -0 -0 -0 0 -0 -0 -0 -0 -0 0 0 0 0 0 -0 -0 -0 -0 -0 -0 -0 -0 -0 -0 -0 -0 -0 -0 -0 -0 0 0 -0 -0 -0 -0 -0 -0 -0 -0 0 0 0 0 0 0 0 0 0 0 0 0 0 0 0 0 -0 -0 0 0 0 0 0 0 0 -0 -0 nan
nan -0 0 0 0 0 0 -0 -0 -0 -0 -0 0 -0 0 0 0 0 0 0 0 0 -0 -0 0 0 0 0 0 0 0 -0 -0 -0 -0 -0 -0 -0 -0 -0 -0 -0 -0 -0 -0 -0 -0 -0 -0 -0 -0 -0 -0 -0 -0 0 0 0 0 0 0 0 0 0 0 0 0 0 0 0 0 0 0 0 0 0 0 0 0 -0 -0 -0 -0 -0 nan
nan -0 0 0 0 0 0 -0 -0 -0 -0 -0 -0 -0 -0 0 0 0 0 0 0 0 -0 -0 -0 0 0 0 0 0 0 -0 -0 -0 -0 -0 -0 -0 -0 -0 -0 -0 -0 -0 -0 -0 -0 -0 -0 0 -0 -0 -0 -0 -0 -0 -0 0 0 0 0 0 0 0 0 0 0 0 0 0 0 0 0 0 0 0 0 -0 -0 -0 -0 -0 -0 -0 nan
nan 0 0 0 0 0 0 -0 -0 -0 -0 -0 -0 0 0 0 -0 -0 0 0 0 -0 -0 -0 -0 0 0 0 0 0 0 -0 -0 -0 -0 -0 -0 -0 -0 -0 -0 -0 -0 -0 -0 -0 -0 -0 -0 -0 0 -0 -0 -0 -0 -0 -0 -0 -0 0 0 0 0 0 0 0 0 0 0 0 0 0 0 0 0 0 0 0 0 0 0 -0 -0 -0 nan
nan 0 -0 -0 0 0 0 -0 -0 -0 0 0 0 0 0 0 -0 -0 -0 -0 -0 -0 -0 -0 -0 -0 0 0 0 0 -0 0 0 0 0 0 0 0 -0 -0 -0 -0 -0 -0 0 0 0 -0 -0 -0 -0 0 0 -0 -0 -0 -0 -0 -0 0 0 0 0 0 0 0 0 0 0 0 0 0 0 0 0 0 0 0 0 0 0 0 0 -0 nan
nan 0 0 -0 0 0 0 -0 -0 -0 0 0 0 0 0 0 -0 -0 -0 -0 -0 -0 -0 -0 0 0 0 0 0 -0 -0 -0 0 0 0 0 0 0 0 -0 -0 0 0 -0 -0 0 0 0 0 0 0 0 0 0 0 0 -0 -0 -0 0 0 0 0 0 -0 0 0 0 0 0 0 0 0 0 0 0 0 0 0 0 0 0 0 0 nan
nan 0 0 0 -0 -0 -0 -0 -0 0 0 0 0 0 0 -0 0 0 0 -0 -0 0 0 0 0 0 0 0 0 0 0 -0 -0 0 0 0 0 0 0 0 -0 0 0 0 -0 -0 -0 0 0 0 0 0 0 0 0 0 -0 -0 -0 0 0 -0 -0 -0 -0 0 0 0 0 0 0 0 0 0 0 0 0 0 0 0 0 0 0 0 nan
nan 0 0 0 -0 -0 -0 -0 0 0 0 -0 0 0 0 0 0 0 0 0 0 0 0 0 0 0 0 0 0 0 0 0 -0 -0 -0 0 0 0 0 0 0 -0 0 0 0 -0 -0 0 0 0 0 0 0 0 0 0 0 0 -0 -0 -0 -0 -0 -0 -0 -0 -0 -0 0 0 0 0 0 0 0 0 0 -0 0 0 0 -0 0 0 nan
nan 0 -0 -0 -0 -0 -0 0 0 0 0 -0 0 0 0 0 0 0 0 0 0 0 0 0 0 0 0 0 0 0 0 0 0 0 -0 -0 0 0 0 0 0 -0 -0 0 0 0 0 0 0 0 0 0 0 0 0 0 0 0 -0 -0 -0 -0 -0 -0 -0 -0 -0 -0 0 0 0 0 0 0 0 0 0 0 0 -0 0 0 0 0 nan
nan -0 -0 -0 -0 -0 -0 -0 0 0 0 0 0 0 0 0 0 0 0 -0 -0 0 0 0 0 0 0 -0 -0 -0 0 0 0 0 0 -0 -0 0 0 0 0 0 -0 -0 0 0 0 0 0 0 0 0 0 0 0 0 0 -0 -0 -0 0 -0 -0 -0 -0 -0 0 -0 0 0 0 -0 -0 -0 0 0 0 -0 0 0 0 0 0 0 nan
nan -0 0 -0 -0 -0 -0 -0 -0 0 0 0 -0 -0 -0 -0 -0 0 0 -0 -0 -0 -0 -0 -0 -0 0 0 -0 -0 -0 -0 -0 -0 0 0 -0 -0 -0 0 0 0 0 0 0 0 -0 -0 -0 0 0 -0 -0 -0 0 0 -0 -0 -0 -0 -0 -0 -0 -0 -0 0 -0 -0 0 0 0 -0 -0 -0 0 0 -0 -0 0 0 0 0 0 0 nan
nan nan nan nan nan nan nan nan nan nan nan nan nan nan nan nan nan nan nan nan nan nan nan nan nan nan nan nan nan nan nan nan nan nan nan nan nan nan nan nan nan nan nan nan nan nan nan nan nan nan nan nan nan nan nan nan nan nan nan nan nan nan nan nan nan nan nan nan nan nan nan nan nan nan nan nan nan nan nan nan nan nan nan nan nan
Wind_Speed
9 9 10 11 11 12 13 13 13 14 15 16 19 20 20 21 21 20 18 16 15 15 13 11 10 11 13 13 12 11 10 10 11 11 12 14 15 17 17 16 16 16 17 18 18 17 15 16 18 20 20 20 20 20 19 17 17 16 15 13 11 10 10 11 12 13 13 13 11 12 14 12 11 12 10 8 9 9 8 8 7 6 5 7 10
10 10 11 12 12 13 14 14 13 13 13 15 18 18 19 19 17 16 16 14 14 14 12 10 10 10 10 12 12 10 9 9 10 10 11 13 14 16 16 15 15 16 16 18 17 16 16 16 17 19 19 19 21 20 18 16 17 16 14 13 13 12 11 10 14 17 17 15 13 14 14 12 12 13 10 7 7 9 9 8 7 8 6 6 8
10 10 11 13 13 12 13 13 12 13 13 14 16 17 17 16 15 15 16 14 13 12 11 9 9 10 11 11 10 9 9 9 9 10 11 12 14 16 16 15 15 16 17 17 17 17 18 16 16 18 18 18 19 18 16 16 17 15 13 14 15 14 10 10 13 17 18 17 15 14 14 12 12 12 10 6 7 9 9 8 7 9 9 8 7
10 11 11 12 12 12 12 12 12 12 13 14 16 16 16 15 13 15 16 15 14 12 9 7 8 10 11 10 9 9 9 8 8 9 9 10 13 14 15 15 16 18 17 16 17 18 18 17 17 18 18 17 17 16 17 17 15 14 15 15 15 14 12 11 12 15 16 16 15 13 13 13 12 12 10 8 8 10 10 9 9 10 10 9 8
11 11 11 12 12 12 12 11 11 12 13 13 14 15 15 14 13 13 15 17 14 11 8 5 6 7 8 9 9 8 9 9 8 8 9 10 13 14 15 17 19 20 18 18 18 17 16 16 16 16 16 17 17 16 16 16 15 15 16 15 14 15 14 13 14 15 14 15 14 13 13 12 11 11 11 10 10 10 10 9 9 10 10 9 9
11 11 12 12 11 12 12 10 11 14 14 13 13 14 14 14 13 11 13 14 11 9 8 4 2 4 5 7 8 8 8 8 7 8 9 10 14 15 14 15 17 18 18 18 18 17 15 15 15 16 17 16 16 15 14 14 14 15 15 14 14 16 17 15 16 17 15 14 14 13 13 13 12 12 11 10 10 11 11 9 10 10 10 10 11
12 12 12 12 12 12 11 10 11 14 15 12 12 13 13 13 13 11 10 10 8 7 7 5 1 2 3 4 6 6 7 8 7 8 9 11 14 14 12 11 12 14 16 16 18 19 17 15 15 15 15 15 14 14 14 13 13 13 12 11 14 18 20 17 15 17 16 15 14 13 13 13 13 12 11 10 10 10 11 11 10 11 11 11 11
13 13 13 13 13 13 11 10 10 12 14 12 11 11 12 12 11 10 9 7 5 5 6 6 3 1 3 4 5 5 6 9 9 8 9 11 12 11 10 11 12 12 12 12 13 15 15 14 14 14 14 14 14 14 14 13 13 12 10 11 13 17 20 18 14 15 15 13 13 14 13 13 12 11 11 11 11 10 11 11 11 12 12 12 12
14 14 15 15 15 14 13 10 8 8 10 10 9 9 10 10 9 8 8 6 3 3 3 4 3 2 4 5 5 5 7 10 10 8 9 10 8 8 9 11 11 11 10 9 8 9 10 12 14 14 13 13 12 12 14 14 12 11 10 11 14 17 19 18 15 15 15 13 13 14 13 12 12 12 11 12 12 11 11 11 11 12 12 12 12
15 15 15 16 15 15 13 10 8 7 7 8 8 10 11 10 10 9 7 6 5 4 4 5 5 3 3 5 6 7 9 9 7 7 8 8 6 7 9 9 9 9 9 8 7 8 9 10 12 13 12 12 12 11 13 14 12 10 10 12 15 17 18 17 15 14 15 14 12 12 13 12 12 13 13 12 12 11 12 13 13 12 13 13 13
15 15 15 15 16 16 13 10 9 8 8 10 10 11 12 12 11 9 8 8 7 6 5 6 5 1 4 6 8 10 9 8 6 6 8 8 6 6 8 8 8 7 7 7 7 8 9 9 10 12 11 12 12 11 12 14 13 11 11 12 13 13 14 15 14 11 11 11 10 10 12 11 12 13 13 13 13 12 12 13 13 13 15 15 14
15 15 15 17 17 16 14 12 11 10 10 12 13 13 13 12 11 9 8 8 8 6 5 5 4 4 7 7 7 8 6 5 4 4 7 9 9 7 6 6 6 7 7 6 7 6 6 7 9 11 11 11 12 12 12 13 13 12 12 14 14 12 11 12 12 9 7 7 8 10 10 9 11 12 11 11 11 11 11 11 11 12 15 16 15
15 15 16 17 17 17 16 14 13 13 14 15 15 14 14 14 14 12 9 7 6 5 5 4 4 6 6 4 4 4 3 4 4 4 5 7 8 7 5 4 5 6 6 5 5 5 6 8 9 10 11 10 10 11 12 13 13 11 11 13 14 14 12 12 12 11 7 5 6 9 10 8 7 9 10 9 8 8 10 11 11 12 12 10 10
14 15 16 17 16 16 17 17 17 17 17 16 15 15 15 16 17 15 12 9 7 9 10 8 2 4 6 6 6 5 4 5 5 4 4 3 5 5 4 4 5 5 5 6 6 6 7 8 9 10 12 12 12 12 12 12 12 12 12 12 13 13 12 12 12 11 9 7 5 7 9 8 7 8 10 11 10 11 11 11 12 13 12 9 8
14 15 16 16 16 15 16 18 19 19 18 16 15 15 16 17 17 16 14 11 10 13 15 15 11 8 8 8 6 3 5 7 6 4 2 2 2 3 5 7 7 6 7 8 7 8 9 8 9 12 14 15 16 16 14 12 11 11 11 10 10 10 10 10 10 9 9 10 9 7 8 10 11 12 12 12 11 11 11 11 11 11 11 8 8
15 15 16 16 16 15 15 16 18 19 18 16 16 16 17 17 16 15 14 12 11 12 13 14 13 10 7 6 3 1 3 7 6 3 2 2 2 2 4 3 4 5 5 5 6 9 11 12 12 13 15 17 16 15 14 12 9 9 9 8 8 8 7 7 7 7 7 8 9 9 10 10 11 12 12 11 9 8 7 8 9 10 8 5 6
16 15 15 16 16 16 15 16 18 19 19 19 19 18 18 16 14 12 12 13 13 13 13 12 10 7 4 2 3 2 2 5 4 3 1 2 5 5 5 4 3 6 7 7 8 9 12 14 15 15 17 17 15 13 12 11 8 8 8 8 6 5 5 4 4 5 7 7 8 9 10 10 10 10 10 9 8 7 6 6 7 8 5 3 4
16 15 15 15 16 17 17 16 18 20 21 22 22 21 19 17 14 12 11 12 13 13 12 10 8 6 5 4 3 0 2 2 4 4 2 2 4 6 8 8 6 6 6 7 8 10 11 12 13 13 13 13 12 11 11 10 9 7 6 6 4 3 4 4 4 5 7 8 8 9 9 9 9 9 9 8 8 8 8 7 6 4 2 3 4
16 15 15 16 18 19 19 18 18 21 23 23 22 22 21 19 16 13 12 12 12 11 10 10 9 7 6 6 5 3 3 3 3 2 1 1 2 4 7 7 7 6 3 3 5 9 10 8 8 10 11 12 11 9 8 8 6 5 5 4 3 3 3 4 5 6 7 9 9 8 8 9 9 8 8 8 7 7 7 6 5 4 3 2 2
15 16 16 17 17 18 19 20 20 21 23 22 21 22 21 19 18 17 16 16 15 13 12 11 11 10 10 8 5 3 1 2 4 3 2 2 2 3 5 6 7 7 3 2 2 5 7 8 11 13 12 11 9 7 6 6 4 3 4 4 4 3 3 5 6 7 8 9 8 8 8 8 7 7 8 8 7 7 7 7 6 5 4 1 3
16 16 17 18 19 19 21 21 21 21 20 18 18 18 18 17 17 18 18 18 17 16 14 12 11 11 12 11 8 5 3 2 1 1 2 3 3 3 4 4 5 6 3 1 1 4 7 9 11 10 8 6 5 4 3 3 4 4 4 5 5 2 3 5 7 7 7 7 6 6 6 5 5 6 7 8 8 8 8 8 8 7 6 5 3
16 17 19 21 23 24 24 24 23 22 20 19 18 18 17 15 14 14 14 14 15 15 15 14 12 12 12 12 11 9 7 4 4 3 2 2 2 3 3 3 4 5 3 1 3 6 8 8 8 6 4 4 5 6 6 5 5 6 5 5 5 3 4 4 4 4 3 3 3 2 1 1 1 2 4 5 5 7 8 8 9 9 9 8 8
14 16 17 19 21 22 22 22 22 21 21 20 19 19 18 17 16 15 13 13 13 13 12 12 11 10 10 10 10 9 7 6 6 6 5 5 3 3 4 5 5 6 4 2 4 7 8 8 9 9 9 10 10 9 7 6 6 6 5 6 5 4 5 5 5 4 3 3 4 4 4 3 2 2 1 1 2 4 5 6 7 7 8 9 10
13 14 15 17 18 18 19 20 20 20 19 18 18 18 18 18 18 18 18 16 15 14 13 12 11 10 10 9 8 7 6 6 6 6 6 6 6 5 5 5 4 4 4 2 2 3 4 6 7 8 7 8 8 7 5 6 7 5 4 4 4 5 6 6 6 5 4 3 3 5 6 5 4 4 3 2 2 3 3 4 5 6 7 9 11
15 15 15 15 15 16 16 17 18 19 19 19 20 19 18 17 18 18 19 19 19 17 16 16 15 15 13 12 11 9 8 6 6 6 6 7 7 6 6 6 5 4 3 1 1 2 2 4 4 4 3 3 4 4 3 3 3 4 5 5 5 5 5 4 5 4 4 2 3 4 6 6 7 7 5 1 2 4 3 2 3 4 4 5 7
16 15 15 15 15 15 16 17 17 17 18 19 20 20 19 18 18 18 18 19 19 18 17 17 17 17 17 17 16 14 12 10 9 8 9 9 8 9 8 8 7 6 4 2 1 1 1 2 3 3 1 1 1 1 2 2 3 4 5 4 4 5 5 5 4 2 2 4 4 4 5 6 7 7 4 3 4 3 3 3 3 3 3 2 2
15 15 15 15 15 16 17 18 18 18 18 18 18 19 19 18 18 18 18 18 17 16 16 16 16 16 16 16 16 15 15 14 13 12 11 10 10 10 9 8 7 6 5 4 3 4 5 5 4 4 5 6 4 3 3 3 2 2 4 5 5 5 4 3 1 3 5 7 7 7 8 6 4 3 3 5 5 5 5 5 4 4 4 4 4
14 14 14 15 15 16 17 18 18 18 19 19 18 19 20 20 20 20 20 19 17 16 14 14 14 14 14 13 14 14 14 14 14 13 13 12 11 11 10 8 7 5 5 6 5 4 5 5 6 8 8 7 6 5 5 6 5 5 5 4 4 3 2 3 4 5 7 8 8 7 5 4 5 6 6 6 5 5 6 6 5 5 4 4 4
13 13 13 13 13 14 14 15 15 15 16 18 20 20 20 20 21 22 22 21 20 18 16 14 13 12 11 11 11 12 11 12 13 13 12 12 11 10 10 10 9 8 7 7 7 6 5 4 5 7 7 6 5 5 5 5 4 3 2 2 2 3 4 5 5 5 7 7 7 7 6 6 7 6 6 6 6 6 6 6 6 5 4 3 3
13 13 12 12 12 12 12 13 13 12 12 14 16 18 20 20 22 23 24 23 22 20 18 17 15 13 11 10 10 10 10 11 10 10 9 9 8 8 7 7 7 6 6 7 6 7 7 6 6 6 5 3 2 2 1 1 1 2 2 3 3 4 5 5 4 4 6 7 8 8 7 6 5 5 4 4 4 5 7 7 6 5 4 4 3
12 12 12 13 13 12 12 12 13 13 12 11 11 13 16 18 21 23 24 25 24 22 20 18 16 15 13 12 10 8 8 8 7 7 7 7 7 6 6 6 5 5 4 4 3 3 4 3 3 3 2 1 2 2 3 3 4 4 4 5 5 6 7 6 4 2 4 6 7 8 8 6 5 4 4 4 4 5 5 5 4 4 3 4 4
11 12 12 12 13 12 12 12 13 13 13 12 11 11 11 14 17 20 22 24 25 25 23 22 21 18 14 12 10 9 7 6 6 6 6 7 8 8 7 7 7 7 6 5 4 3 2 2 3 3 3 3 3 4 4 4 4 4 5 6 5 6 6 4 2 2 1 1 4 5 5 4 4 4 4 4 4 4 4 4 5 5 5 6 6
12 11 11 11 11 12 12 12 13 13 13 13 13 12 12 11 12 15 18 20 23 24 24 24 25 22 17 14 12 10 9 9 8 8 8 8 9 10 10 11 11 11 10 10 9 8 6 5 5 4 4 3 3 4 3 2 1 2 3 4 3 3 3 1 3 3 5 5 5 5 4 4 5 5 4 5 5 4 4 4 5 6 8 7 6
13 13 12 11 11 11 12 12 12 13 13 13 13 13 12 12 12 12 14 15 18 20 22 24 26 25 22 19 17 13 11 11 10 9 9 9 11 12 13 13 14 14 12 10 9 8 8 6 6 5 5 5 4 4 3 2 2 2 2 2 2 2 1 1 1 3 5 5 5 5 5 5 5 5 5 5 6 6 6 5 5 6 7 6 5
12 12 13 13 12 12 12 12 12 12 13 13 13 13 13 12 12 13 13 13 13 14 16 19 23 24 24 24 22 18 14 12 11 10 9 9 11 14 14 13 12 12 10 9 8 8 7 6 6 6 6 5 4 4 3 3 3 3 2 2 2 1 1 0 1 2 3 3 3 4 5 5 5 4 4 4 5 6 6 6 6 6 5 5 4
10 11 12 12 12 12 12 12 12 13 12 12 13 13 13 13 12 12 13 14 13 14 14 15 18 21 22 24 25 23 20 17 14 12 10 9 10 12 13 11 10 10 10 10 9 8 8 7 7 7 5 4 4 4 4 2 2 1 1 1 0 1 1 2 2 2 3 3 4 5 5 5 4 4 5 6 6 5 6 6 6 7 7 7 5
10 10 11 11 10 11 12 12 12 13 12 12 12 13 13 13 12 12 13 14 14 14 14 14 15 17 18 20 22 23 23 22 19 18 16 14 13 13 13 12 11 10 11 10 10 10 9 8 8 7 6 5 4 4 4 3 2 1 1 1 2 5 6 5 4 4 4 4 4 5 5 5 5 4 5 6 6 5 5 6 6 8 9 8 5
11 12 13 13 11 11 11 12 12 12 11 11 12 13 13 13 13 12 13 14 14 14 14 14 15 15 15 15 14 15 18 19 19 19 18 17 16 15 14 13 12 11 11 11 10 10 9 8 7 7 6 5 4 4 3 3 3 2 1 0 2 4 5 5 4 4 4 4 4 5 5 5 5 5 5 5 5 5 6 5 5 6 6 5 4
12 13 14 15 13 12 11 11 12 12 11 11 11 12 13 13 13 13 13 13 14 13 13 13 14 16 17 15 11 12 14 15 15 16 16 15 14 14 13 12 12 11 11 11 10 10 9 9 8 7 6 5 4 4 3 3 3 3 3 3 2 3 4 3 3 4 4 3 3 4 4 4 4 4 5 6 5 6 6 6 5 5 5 3 4
11 12 13 13 12 11 11 11 11 11 12 11 11 12 12 12 12 13 13 13 13 13 13 13 11 14 19 18 13 13 15 14 13 13 14 13 13 13 12 12 12 11 11 11 10 10 9 9 8 7 7 6 5 4 3 3 3 3 3 3 2 3 3 3 3 3 3 3 4 4 4 4 4 4 4 5 5 6 6 6 5 5 5 3 4
8 9 11 11 10 10 10 11 11 11 11 11 11 11 12 11 12 12 12 12 12 12 13 12 10 12 18 20 15 14 14 13 12 12 12 12 12 12 11 11 11 11 11 11 10 9 8 8 8 7 6 6 6 6 4 4 3 3 3 2 2 2 3 3 3 3 3 3 4 5 4 3 4 5 5 5 5 5 5 5 4 4 4 4 4
7 7 8 9 9 9 9 9 10 10 11 10 10 10 11 11 11 11 11 12 12 11 12 12 10 11 15 18 16 15 14 13 11 11 11 11 11 11 11 11 10 11 11 10 10 9 8 8 8 7 5 4 4 4 5 5 4 2 2 2 2 2 2 2 2 3 3 2 4 7 7 5 5 5 5 4 4 4 4 4 4 3 3 3 4
7 7 7 7 7 8 8 8 8 8 9 10 9 9 10 10 10 10 10 11 11 11 10 11 11 11 12 15 16 15 13 12 11 11 11 11 11 10 10 10 10 11 10 10 10 9 8 6 6 6 5 4 3 2 2 3 3 2 2 1 2 2 2 2 2 3 3 1 2 6 7 4 3 3 3 3 3 3 3 4 3 2 2 2 2
6 5 6 6 6 6 7 7 7 7 8 9 9 9 9 9 9 9 10 10 10 10 10 10 10 10 11 12 13 13 12 12 11 11 11 11 10 10 10 9 10 11 10 9 10 10 8 6 6 6 5 4 4 3 3 2 1 1 1 2 1 2 2 3 4 6 7 5 2 1 2 3 3 3 2 2 3 3 3 2 3 3 2 1 1
4 4 4 5 5 5 6 6 6 6 7 8 8 8 8 8 8 8 9 10 10 9 9 9 10 10 10 11 11 10 10 10 10 10 10 10 9 9 9 9 10 10 9 9 11 12 10 7 6 6 6 4 4 4 4 4 2 1 3 4 4 3 4 5 5 8 10 10 7 3 1 2 2 3 3 3 2 2 3 3 2 3 3 2 1
4 4 4 4 4 4 5 5 5 5 6 6 7 7 7 8 8 8 9 10 10 10 10 10 10 10 11 11 11 10 10 10 9 9 9 9 8 8 8 8 9 9 9 10 12 13 12 11 9 9 8 9 8 6 4 4 5 4 2 3 5 6 8 8 6 6 10 11 9 7 5 3 1 2 5 6 3 1 4 4 2 2 4 2 1
4 3 3 3 3 4 4 4 5 5 5 6 6 7 7 8 8 8 9 9 10 10 10 10 11 11 11 11 11 10 10 10 9 8 8 8 8 8 8 8 8 8 9 10 12 12 13 14 14 13 12 12 12 9 5 3 4 4 4 5 6 7 8 8 8 9 10 11 10 8 8 6 2 1 5 6 2 2 4 4 3 4 5 3 1
3 2 2 2 3 3 3 4 5 5 5 5 6 6 7 8 8 8 8 9 9 10 10 10 11 11 11 11 11 10 10 10 9 8 7 7 7 7 8 8 8 7 8 9 11 11 12 14 15 16 16 15 14 11 6 4 5 5 6 7 8 7 7 9 10 11 11 11 10 9 9 8 7 6 7 7 6 4 2 1 3 3 3 3 3
2 2 1 2 2 3 3 4 4 5 5 5 6 6 7 7 8 8 8 9 9 9 10 10 10 11 11 11 10 10 10 9 9 8 8 7 7 7 7 8 9 8 7 7 9 12 13 14 15 15 16 16 15 12 9 7 6 7 7 7 7 7 8 8 9 11 12 12 12 10 8 8 9 9 8 8 9 9 6 4 3 4 3 3 4
1 1 1 2 2 3 3 4 4 5 5 5 6 6 7 7 7 8 8 9 9 9 10 10 10 10 11 11 10 10 10 9 9 9 9 8 7 7 7 7 8 9 8 7 8 10 12 15 16 16 16 16 16 14 11 9 9 9 9 8 8 8 8 8 9 10 12 13 13 12 9 8 9 10 8 7 8 9 9 8 7 6 4 3 4
0 1 1 2 3 3 4 5 5 5 6 6 6 6 7 7 8 8 8 9 9 9 10 10 9 10 11 11 11 10 11 10 9 9 9 9 9 8 7 7 8 8 8 8 9 9 11 14 16 17 17 17 16 15 13 11 11 10 10 10 10 10 9 9 9 9 10 11 12 12 11 10 10 10 9 7 6 6 7 9 10 9 7 5 4
Wind_Direction
330 311 303 306 308 306 304 301 296 295 297 300 302 306 308 302 295 287 272 257 250 246 245 243 230 219 216 211 204 198 201 211 210 207 213 219 223 225 227 229 230 229 227 220 215 215 214 212 210 209 209 209 210 212 210 206 207 209 209 207 204 211 209 189 182 182 173 173 174 170 182 182 162 166 176 171 166 161 162 179 176 160 185 201 189
339 329 322 321 318 312 309 308 304 301 302 304 307 313 315 312 311 302 284 267 254 245 241 237 219 203 201 200 198 195 198 212 219 218 219 222 227 228 224 225 228 226 219 215 215 214 211 211 209 206 206 209 209 206 205 206 209 210 211 207 199 201 207 193 177 173 168 166 167 168 176 174 161 168 180 169 153 151 162 175 155 142 171 201 185
343 338 333 329 325 317 314 314 312 311 309 307 310 316 317 316 319 312 298 285 269 253 241 233 212 191 189 193 192 191 197 210 222 226 227 232 236 230 221 223 226 218 209 212 213 208 206 207 206 204 203 204 205 202 202 209 211 208 209 211 204 194 190 188 179 175 170 168 169 169 172 171 163 167 178 174 151 150 163 167 149 154 175 187 182
347 344 339 335 332 326 324 325 324 321 315 308 310 315 318 319 319 313 305 291 275 263 247 222 196 185 188 196 198 200 204 207 216 225 229 233 232 226 222 224 220 211 205 208 212 209 206 201 199 203 204 202 203 203 204 209 209 208 210 211 206 195 185 180 175 174 171 167 168 168 168 169 165 164 168 164 155 158 166 165 157 165 174 176 187
353 351 347 345 344 339 337 338 335 326 317 311 312 315 316 319 319 314 307 295 285 282 268 219 178 178 188 201 210 212 213 211 215 224 225 220 216 220 224 216 206 206 205 203 208 210 206 200 197 201 205 205 205 205 206 206 205 210 215 212 202 193 189 181 168 167 169 165 164 165 165 165 163 163 165 161 159 163 170 169 164 172 174 172 196
357 358 359 360 357 350 345 345 341 335 327 318 318 320 317 319 324 325 316 306 299 297 286 260 155 159 193 213 215 211 210 208 209 215 214 206 202 209 221 215 204 210 212 205 204 205 203 200 199 202 205 204 203 205 206 206 206 212 216 215 206 195 191 184 169 165 169 167 165 167 168 168 166 166 168 167 165 165 171 173 169 179 180 171 196
4 4 7 9 7 3 358 356 352 346 338 328 323 324 324 327 332 332 324 316 313 315 309 310 16 133 202 216 202 194 191 185 183 189 193 194 193 195 209 216 213 218 220 213 205 201 199 197 199 206 206 201 201 205 204 204 209 213 211 206 203 194 188 183 167 164 171 173 173 174 173 171 170 171 172 171 171 171 174 176 174 184 189 180 195
13 10 9 10 10 6 1 359 358 355 353 349 337 330 333 338 340 334 325 322 321 324 328 334 353 148 193 205 195 183 173 170 172 179 189 192 190 193 205 213 215 216 215 213 205 198 195 191 192 204 205 200 202 202 201 200 201 207 207 197 195 190 182 177 169 170 178 180 178 179 181 181 178 176 176 178 182 183 181 183 183 186 192 191 194
18 15 11 10 8 4 356 350 350 352 357 356 345 336 335 337 341 335 322 323 323 301 306 317 311 231 209 217 202 171 163 170 175 185 199 198 191 204 216 209 206 206 203 204 202 197 196 190 190 200 203 200 203 200 199 201 199 202 201 185 182 184 180 176 177 178 181 184 184 181 181 185 184 181 182 186 191 193 190 191 192 192 196 198 196
19 17 14 11 7 5 0 353 351 350 354 358 350 346 345 343 347 343 326 321 316 295 284 289 293 281 223 217 199 174 159 156 164 185 204 205 198 213 220 204 195 200 197 194 194 197 204 202 198 205 207 204 204 200 199 202 202 203 196 177 173 179 178 176 179 186 190 194 198 193 183 186 192 191 193 198 199 199 196 196 200 201 201 202 202
22 18 16 13 8 9 9 5 5 5 10 15 10 4 2 359 358 354 343 334 322 309 298 288 285 231 179 190 190 187 170 145 150 187 200 200 195 201 207 200 192 198 201 196 192 197 209 212 207 209 212 208 206 206 204 203 202 201 195 185 181 186 187 182 179 187 198 199 202 198 190 195 207 204 201 204 204 201 199 202 206 207 207 209 205
25 21 18 15 15 19 21 18 16 21 29 32 29 25 22 21 20 12 360 352 343 336 324 300 266 188 182 185 181 187 181 147 153 194 200 198 197 192 196 205 204 204 209 204 197 203 212 209 205 207 207 204 205 208 204 199 197 198 193 188 188 193 196 190 179 174 185 199 202 197 196 209 218 213 211 212 209 207 207 211 214 217 220 218 208
24 24 23 21 24 29 32 30 29 33 37 38 35 33 31 31 32 29 21 13 5 3 1 323 257 201 179 158 143 158 171 157 159 179 191 200 207 200 186 206 231 222 215 208 203 208 207 200 200 202 196 193 196 196 191 188 187 187 187 189 191 191 189 187 185 179 174 182 191 189 194 206 205 201 207 212 209 207 212 220 222 224 232 231 210
21 27 28 27 30 34 36 38 40 42 43 43 39 36 36 39 42 40 35 35 45 57 55 37 350 181 145 117 110 122 146 151 147 157 178 202 217 210 197 214 236 222 197 190 190 188 191 199 201 190 179 176 173 168 167 171 170 165 170 178 184 188 189 190 197 203 205 205 193 179 188 204 209 207 214 218 217 216 224 233 230 227 237 251 242
26 31 33 32 33 36 38 40 44 48 50 52 50 45 44 49 54 54 52 55 66 73 69 60 56 68 83 95 106 134 160 154 144 147 175 206 205 227 254 243 223 199 184 183 186 178 170 171 177 172 168 169 167 161 158 161 162 164 173 180 184 191 197 200 207 219 227 230 235 232 228 234 236 234 233 235 235 233 235 241 242 238 238 233 225
32 33 34 34 34 34 36 40 46 51 53 54 52 49 48 51 56 59 59 63 68 75 79 76 72 67 60 76 93 317 134 140 148 151 147 264 243 251 301 269 205 197 195 189 193 187 171 163 164 165 166 169 168 165 164 163 161 165 173 177 180 185 192 202 210 219 228 233 241 243 240 241 241 241 243 244 246 244 234 233 239 237 231 217 207
34 33 34 34 34 35 37 42 50 56 57 56 53 50 47 49 53 57 60 63 63 65 70 74 81 85 74 109 186 263 72 124 159 169 140 295 275 278 315 322 253 231 219 203 205 198 180 175 178 175 168 164 162 165 169 164 155 158 167 167 166 172 181 192 207 222 230 233 234 235 235 237 236 238 240 237 237 238 228 231 241 232 218 214 217
36 35 36 38 40 43 44 44 50 56 57 57 54 50 46 45 48 53 60 66 64 57 57 57 60 67 65 89 137 83 2 106 154 168 184 292 298 297 312 314 285 256 229 212 211 201 183 176 179 178 165 152 148 155 163 161 154 154 161 169 183 203 206 209 221 230 231 230 229 229 230 233 233 231 231 228 229 235 234 235 241 232 191 149 170
39 40 44 50 53 54 53 51 51 53 54 54 54 52 49 47 49 54 58 63 62 55 53 50 46 47 49 54 74 59 349 357 58 105 186 267 317 318 326 324 318 321 302 225 193 189 187 170 159 164 160 151 148 152 161 168 169 160 149 167 235 249 200 204 220 227 232 232 229 230 232 235 237 235 237 239 235 235 234 222 203 181 165 177 212
47 48 52 56 56 54 56 58 61 62 60 56 56 56 55 55 58 61 61 62 62 57 50 42 35 39 43 40 52 100 150 316 346 7 20 40 43 2 350 344 351 1 339 259 197 192 190 160 146 151 154 156 159 164 176 190 205 198 170 193 261 266 192 212 220 219 231 233 226 229 235 239 244 245 248 249 239 229 224 216 208 188 168 230 288
55 57 58 60 59 59 60 61 64 68 69 67 65 64 62 60 60 62 63 65 66 65 61 52 44 46 50 48 47 66 101 156 227 310 347 12 22 22 21 24 41 54 54 328 281 216 192 160 153 160 165 175 185 198 229 245 250 235 202 214 254 250 197 222 220 214 227 231 222 228 234 237 250 255 251 245 238 235 232 229 231 221 196 191 193
63 65 65 65 66 66 66 64 63 64 66 66 66 65 64 63 61 61 62 62 63 66 67 65 61 60 58 54 49 43 42 61 87 90 65 20 352 360 27 57 83 85 87 129 174 189 188 175 177 202 236 253 258 274 282 268 245 231 213 213 233 219 185 195 199 197 204 192 184 212 239 232 237 261 266 258 246 245 245 241 242 238 226 205 170
69 67 65 64 65 65 65 66 65 64 64 63 63 63 64 64 63 62 60 58 56 57 59 59 58 58 57 55 53 48 39 43 61 71 73 72 71 71 72 77 82 78 72 125 170 185 197 204 221 247 269 279 280 279 274 263 257 251 229 216 213 191 160 135 116 111 112 115 116 103 85 69 74 91 84 270 249 250 252 249 245 240 233 217 188
72 69 64 61 59 60 63 64 64 63 62 61 62 62 62 64 65 64 61 59 58 59 61 62 58 54 52 50 50 52 49 45 49 54 54 54 57 59 56 50 46 42 38 64 152 186 207 217 227 237 253 270 272 265 255 252 250 239 210 193 170 142 129 119 113 103 81 82 117 134 132 123 120 139 167 199 241 269 268 254 248 238 224 217 208
72 70 68 66 62 60 61 63 63 61 58 55 55 56 58 61 65 67 65 61 59 59 61 63 61 58 56 53 49 48 48 45 46 47 40 33 28 20 10 7 6 1 3 37 133 181 206 217 230 241 259 275 260 240 226 224 201 147 125 128 126 117 106 93 84 74 73 104 166 183 179 174 179 198 214 221 21 4 356 331 288 265 236 227 229
73 70 69 71 69 67 64 61 61 62 59 55 52 51 52 55 58 61 64 61 59 58 58 59 58 56 55 52 48 46 46 46 47 48 42 34 28 19 8 4 7 10 13 26 68 135 207 241 256 254 219 126 143 158 116 112 134 124 108 100 88 76 67 63 67 89 171 191 198 199 201 207 219 226 217 141 104 84 75 72 59 54 59 47 32
72 70 69 68 67 65 65 62 59 59 59 58 54 50 48 49 51 53 55 55 55 54 53 53 53 51 50 49 46 44 46 48 48 47 43 38 33 28 21 15 12 14 21 31 52 78 84 83 84 94 95 88 83 89 88 87 96 91 77 68 59 54 53 45 333 238 228 227 226 224 224 223 218 195 152 138 137 133 122 112 104 105 102 88 76
71 70 68 67 64 61 61 60 57 55 55 55 54 50 45 41 42 44 44 45 46 45 44 45 45 41 39 42 42 40 41 45 48 48 47 46 44 40 36 35 34 29 25 22 23 39 63 81 86 80 71 65 69 79 77 68 64 60 55 50 41 29 359 314 289 262 245 237 226 221 220 195 153 133 129 129 126 125 127 126 125 124 123 124 124
73 71 67 66 63 59 57 56 54 51 47 46 47 48 46 42 40 38 37 36 36 36 37 39 39 35 31 33 36 33 33 37 39 41 41 43 43 39 35 34 35 35 36 37 34 29 26 37 64 70 63 55 61 73 75 72 67 52 26 9 355 341 324 314 297 265 243 227 203 179 163 152 144 137 134 131 131 136 135 130 129 131 132 137 140
70 69 67 64 62 59 56 55 55 53 46 38 34 35 38 40 39 37 35 32 30 30 33 34 36 33 29 30 32 31 32 35 36 36 38 38 36 31 26 24 24 24 27 32 37 41 40 38 44 52 53 49 54 69 74 49 344 325 326 321 320 324 329 330 310 250 218 204 187 167 146 124 116 125 136 135 130 129 124 120 121 127 136 145 143
68 66 65 63 61 59 56 54 54 54 54 48 35 23 21 23 24 27 30 30 28 28 31 32 32 30 29 30 30 27 29 33 35 35 34 31 28 24 20 20 17 11 11 13 17 34 46 41 29 16 3 340 304 288 290 295 294 296 297 291 297 316 324 325 321 275 220 193 171 150 131 116 120 138 139 124 111 108 108 114 124 125 135 155 154
69 64 62 61 60 58 56 55 53 52 51 52 50 41 28 17 14 16 22 25 24 23 25 26 25 24 25 26 22 17 14 11 12 17 15 13 15 13 9 13 13 7 7 10 7 11 19 14 7 351 321 300 292 284 281 286 298 308 305 297 304 321 321 330 31 34 351 158 142 134 128 127 133 135 125 118 123 124 119 139 158 148 127 134 148
74 69 63 60 58 57 56 54 53 52 50 47 46 47 44 36 24 17 18 20 19 17 17 19 19 19 22 22 16 10 6 360 356 358 0 5 9 7 7 11 11 13 22 23 16 15 18 11 3 352 331 316 306 297 293 295 300 307 310 314 323 324 319 33 122 165 187 169 146 141 149 146 136 131 126 121 122 121 115 126 141 127 113 114 130
76 80 77 68 61 58 57 54 52 50 50 48 46 44 42 42 40 33 26 23 19 14 10 11 13 17 21 23 21 16 9 4 1 0 3 13 20 21 24 25 21 23 31 30 18 16 21 18 13 8 3 359 349 335 332 332 314 297 295 309 316 304 301 21 125 180 176 158 137 133 144 142 126 118 117 115 118 121 116 116 120 118 120 129 134
66 73 73 67 62 58 56 56 54 50 48 46 44 43 41 40 40 40 37 34 31 24 15 10 11 14 18 21 24 24 22 16 13 10 13 27 37 36 33 30 27 26 30 27 19 17 19 21 23 23 21 21 14 1 350 343 343 337 322 307 306 306 298 196 142 124 118 122 126 129 133 131 124 126 130 123 124 126 124 126 129 126 129 139 140
66 64 60 59 61 60 58 56 54 51 49 46 42 41 42 41 40 40 39 36 35 34 30 21 15 15 15 15 18 24 31 33 32 29 29 36 46 43 36 32 31 30 28 27 25 23 21 21 21 16 9 7 7 360 349 343 350 343 318 316 312 201 178 164 156 139 134 144 145 134 132 133 138 157 159 141 134 138 142 148 153 151 147 144 134
81 76 69 64 60 58 57 55 52 50 49 46 43 42 40 41 41 40 39 38 34 32 33 29 24 23 21 14 13 19 26 32 38 41 41 41 44 45 42 40 37 32 29 27 26 25 24 24 24 21 14 7 3 360 356 355 359 7 151 171 217 213 196 176 158 141 135 141 136 128 134 141 137 138 145 141 139 144 149 156 166 165 157 145 122
88 95 93 85 72 61 58 53 49 50 48 45 44 44 40 41 41 38 37 38 36 32 32 30 28 29 27 19 19 24 24 25 31 37 37 37 38 38 37 37 34 31 29 25 21 21 20 17 18 20 18 13 12 12 13 15 12 14 54 168 234 207 182 165 146 128 128 135 132 124 127 135 130 127 137 143 143 142 138 134 137 141 137 121 102
74 81 82 76 65 60 59 55 48 47 47 44 43 43 40 40 40 38 37 36 34 32 31 29 32 33 26 20 30 44 34 23 25 29 29 30 31 30 29 29 27 25 24 20 17 16 14 10 9 10 9 10 13 13 18 30 36 40 45 40 46 95 118 118 107 113 120 123 122 123 127 129 127 127 132 133 135 138 136 129 123 123 119 109 112
69 66 68 69 63 56 56 55 49 45 44 43 42 41 39 38 36 35 35 33 31 31 28 26 29 28 21 20 34 49 39 26 22 24 23 21 21 21 21 20 19 18 17 15 12 12 10 5 3 3 5 6 5 6 19 31 39 53 67 66 63 84 109 120 119 125 137 142 139 139 138 134 137 138 130 128 132 134 131 127 123 119 110 97 101
75 66 64 67 65 58 53 52 48 44 42 42 40 38 37 35 33 31 30 29 28 27 25 24 21 13 15 22 35 45 37 25 18 18 17 14 13 14 13 11 11 10 9 7 5 5 8 7 2 358 1 7 6 5 14 29 41 52 63 79 97 105 114 125 129 136 144 142 141 147 151 151 154 153 146 139 136 130 123 118 117 116 110 97 93
78 72 64 59 57 56 53 49 47 44 40 39 40 39 36 33 29 27 25 24 24 22 20 21 17 6 7 18 29 35 30 19 12 11 10 7 5 5 4 3 4 2 1 360 358 358 4 7 0 352 352 7 15 14 12 16 27 45 62 83 103 110 119 127 127 132 139 157 185 188 187 185 174 164 157 146 135 128 126 125 123 124 124 114 102
76 72 68 60 55 53 50 46 42 38 35 37 39 38 34 31 27 24 20 18 17 15 13 14 13 5 2 8 19 25 22 12 8 8 6 2 2 2 360 359 357 357 357 355 350 353 1 4 355 346 343 345 358 25 22 13 18 32 40 75 116 125 139 140 113 118 129 172 227 194 177 167 176 184 168 145 141 147 148 144 139 136 132 117 105
80 71 64 59 54 49 45 42 37 31 29 33 33 29 25 23 20 18 17 14 10 9 7 5 3 1 358 360 6 11 9 5 5 4 1 1 1 360 358 356 354 356 358 350 342 347 359 359 344 343 350 349 346 348 343 331 8 48 345 253 209 144 161 201 202 183 170 155 131 156 162 145 156 179 179 159 156 155 154 169 180 172 157 140 124
87 77 65 59 54 45 39 36 31 27 26 26 23 19 16 14 11 8 8 5 2 0 360 357 354 351 350 350 351 351 354 356 357 356 355 357 357 356 357 356 352 354 355 345 339 346 359 2 344 334 334 331 322 322 322 312 296 262 231 220 206 193 215 226 213 191 177 160 139 134 205 188 165 170 167 153 150 171 176 182 193 187 175 169 191
98 83 63 55 47 39 36 30 24 22 21 16 12 9 6 4 2 359 357 356 354 352 351 349 346 343 342 341 339 338 339 341 343 346 347 348 348 349 348 346 348 352 349 341 344 352 358 359 353 342 329 321 315 308 302 303 305 304 273 216 208 221 235 238 222 195 189 181 169 165 174 183 246 227 178 151 123 200 201 185 181 200 197 193 242
100 83 62 52 38 28 25 18 12 12 12 6 4 3 359 356 353 351 349 348 348 348 346 343 341 340 339 338 337 336 334 333 334 337 340 340 340 341 336 333 342 351 342 333 339 351 354 352 351 349 343 335 328 318 298 278 287 292 273 251 245 247 250 244 227 212 207 206 205 200 190 174 146 193 180 168 156 269 230 218 235 233 206 180 192
88 67 51 39 28 21 14 5 0 1 359 354 354 355 354 351 348 346 345 345 345 345 343 342 342 342 340 337 336 334 333 333 334 334 336 335 333 333 330 322 322 333 338 331 330 341 352 356 355 352 350 348 343 332 312 282 266 264 266 268 268 266 259 245 234 226 222 219 219 222 217 203 188 181 188 195 195 189 192 248 264 246 217 187 196
79 59 44 22 10 6 1 352 349 347 342 340 340 341 342 344 344 342 342 341 340 341 341 341 342 342 340 338 339 338 336 338 339 338 338 336 329 328 329 321 313 320 337 333 318 324 342 356 360 358 355 352 348 339 323 302 285 280 283 288 285 274 264 254 242 233 229 227 224 223 227 227 219 210 211 217 211 200 195 208 216 210 212 220 220
73 37 18 352 343 346 344 339 339 337 331 328 330 329 331 334 337 337 337 336 335 336 336 336 337 339 337 336 337 337 336 339 344 343 339 335 327 322 324 323 315 315 323 324 313 314 328 341 348 352 354 353 350 343 329 312 300 294 293 294 291 282 275 271 260 244 234 231 228 223 222 230 231 223 221 231 233 225 220 218 211 203 210 240 242
229 282 312 311 309 317 322 319 322 327 325 322 321 320 321 325 328 328 330 330 328 329 330 329 328 332 334 333 334 335 334 334 337 339 338 336 333 325 318 316 312 307 309 314 314 310 312 322 331 340 344 346 347 347 338 323 310 302 297 296 297 292 284 278 273 260 243 231 225 222 222 229 234 229 222 221 229 239 240 237 228 213 202 210 245
Height
1515 1514 1513 1512 1511 1510 1509 1508 1507 1506 1505 1503 1501 1499 1497 1495 1494 1493 1492 1491 1490 1489 1489 1487 1487 1488 1488 1489 1490 1490 1492 1494 1497 1499 1501 1503 1505 1507 1509 1510 1510 1511 1512 1513 1514 1515 1517 1518 1519 1521 1523 1525 1526 1527 1529 1530 1531 1531 1532 1533 1533 1532 1533 1535 1537 1538 1540 1541 1542 1543 1543 1544 1545 1547 1547 1546 1547 1548 1549 1550 1550 1551 1552 1552 1553
1515 1514 1512 1511 1510 1509 1509 1507 1506 1505 1503 1502 1500 1498 1496 1494 1494 1493 1492 1491 1489 1488 1487 1486 1486 1487 1487 1488 1489 1490 1492 1494 1497 1499 1501 1504 1506 1507 1509 1510 1510 1511 1512 1513 1514 1515 1516 1517 1519 1520 1522 1523 1524 1525 1527 1528 1529 1530 1530 1531 1532 1531 1532 1534 1536 1538 1539 1540 1541 1543 1543 1544 1545 1546 1546 1546 1547 1547 1548 1549 1550 1551 1553 1553 1552
1515 1514 1512 1511 1510 1509 1508 1506 1505 1504 1503 1501 1500 1498 1496 1494 1493 1493 1492 1492 1490 1487 1486 1485 1485 1486 1487 1488 1489 1491 1492 1494 1496 1498 1501 1503 1506 1508 1509 1509 1510 1511 1512 1512 1513 1514 1515 1516 1517 1519 1521 1522 1523 1524 1525 1526 1528 1529 1529 1530 1530 1530 1532 1534 1535 1536 1538 1539 1541 1542 1543 1544 1545 1545 1545 1545 1546 1547 1548 1549 1550 1552 1553 1553 1553
1515 1514 1512 1511 1509 1508 1506 1505 1504 1503 1502 1501 1499 1497 1496 1495 1494 1493 1493 1493 1491 1488 1487 1486 1485 1485 1487 1489 1490 1491 1493 1494 1496 1498 1500 1503 1505 1507 1508 1509 1511 1512 1512 1513 1513 1514 1514 1515 1516 1518 1519 1520 1521 1522 1523 1525 1526 1527 1528 1528 1530 1531 1531 1533 1534 1536 1537 1539 1540 1542 1543 1543 1544 1545 1545 1545 1545 1547 1548 1549 1550 1552 1553 1553 1553
1516 1514 1512 1510 1509 1507 1505 1505 1504 1503 1502 1500 1499 1498 1496 1495 1495 1494 1494 1494 1492 1491 1490 1488 1486 1486 1488 1489 1491 1492 1493 1494 1496 1498 1500 1502 1504 1506 1508 1511 1512 1513 1512 1513 1513 1513 1514 1515 1516 1517 1518 1519 1520 1521 1523 1524 1525 1526 1526 1528 1529 1530 1531 1532 1534 1536 1538 1539 1540 1541 1542 1543 1544 1544 1545 1545 1545 1547 1548 1549 1550 1551 1552 1553 1553
1516 1514 1512 1510 1509 1507 1505 1504 1504 1502 1501 1500 1499 1498 1497 1496 1495 1494 1494 1494 1493 1493 1492 1490 1488 1488 1489 1490 1491 1493 1493 1495 1497 1499 1501 1503 1505 1507 1509 1511 1512 1512 1512 1512 1512 1512 1513 1514 1515 1516 1517 1518 1519 1520 1522 1523 1524 1524 1526 1527 1528 1530 1530 1531 1534 1536 1538 1539 1539 1540 1541 1542 1543 1543 1544 1545 1545 1546 1548 1549 1550 1551 1551 1552 1553
1516 1514 1513 1511 1509 1508 1506 1505 1504 1503 1501 1500 1499 1498 1497 1496 1496 1495 1495 1494 1494 1493 1492 1491 1490 1490 1490 1491 1492 1493 1494 1496 1498 1500 1502 1505 1507 1508 1509 1510 1511 1511 1511 1511 1511 1511 1512 1513 1514 1515 1516 1517 1518 1519 1521 1521 1522 1523 1525 1526 1527 1529 1529 1531 1533 1535 1536 1537 1538 1539 1540 1541 1541 1542 1543 1544 1545 1546 1547 1548 1549 1550 1550 1551 1551
1517 1515 1514 1512 1510 1508 1506 1505 1504 1503 1501 1500 1499 1498 1498 1497 1497 1496 1495 1495 1494 1493 1492 1491 1491 1491 1492 1492 1493 1494 1496 1498 1499 1501 1503 1505 1507 1508 1509 1511 1511 1510 1510 1509 1509 1509 1510 1511 1512 1514 1514 1515 1517 1518 1519 1520 1521 1522 1524 1525 1527 1528 1529 1530 1532 1533 1534 1536 1537 1538 1539 1539 1540 1541 1542 1543 1544 1545 1546 1547 1548 1549 1549 1550 1551
1518 1517 1515 1513 1511 1509 1507 1505 1504 1502 1501 1500 1498 1498 1497 1497 1496 1496 1495 1495 1495 1494 1493 1492 1492 1493 1494 1495 1495 1496 1498 1499 1500 1502 1504 1505 1506 1508 1510 1511 1511 1510 1510 1509 1508 1508 1509 1509 1511 1512 1513 1514 1516 1517 1518 1519 1521 1522 1524 1525 1527 1528 1529 1530 1531 1532 1533 1534 1535 1537 1537 1538 1539 1540 1541 1541 1542 1543 1544 1545 1547 1548 1548 1549 1550
1520 1518 1516 1514 1512 1510 1507 1506 1504 1503 1501 1499 1498 1498 1497 1497 1496 1495 1495 1494 1494 1494 1494 1494 1494 1495 1496 1497 1498 1499 1499 1500 1502 1503 1505 1506 1507 1509 1510 1510 1510 1510 1509 1509 1508 1508 1508 1509 1511 1512 1513 1514 1515 1517 1518 1519 1521 1522 1524 1525 1527 1528 1528 1528 1529 1530 1532 1533 1534 1535 1536 1537 1538 1538 1539 1540 1541 1542 1543 1544 1545 1546 1547 1548 1548
1521 1519 1517 1515 1513 1510 1508 1506 1505 1503 1502 1500 1499 1498 1497 1497 1496 1495 1495 1495 1495 1494 1494 1494 1495 1496 1497 1498 1499 1500 1500 1501 1503 1504 1506 1507 1508 1509 1509 1510 1510 1509 1509 1509 1508 1508 1508 1510 1511 1512 1513 1514 1515 1516 1518 1519 1520 1522 1523 1524 1526 1528 1528 1527 1528 1529 1530 1531 1533 1533 1535 1536 1537 1537 1538 1538 1539 1540 1541 1542 1543 1544 1545 1546 1547
1522 1520 1518 1516 1513 1511 1509 1508 1506 1504 1503 1502 1500 1499 1498 1497 1496 1495 1495 1495 1495 1495 1495 1495 1496 1497 1498 1499 1499 1500 1500 1501 1503 1505 1506 1507 1508 1509 1509 1510 1509 1510 1510 1509 1509 1508 1509 1511 1511 1511 1513 1514 1515 1516 1517 1519 1520 1521 1523 1524 1525 1527 1527 1526 1527 1528 1529 1530 1532 1533 1534 1535 1536 1536 1537 1537 1537 1538 1540 1541 1542 1543 1543 1543 1544
1523 1521 1519 1517 1515 1513 1511 1509 1508 1506 1505 1503 1502 1501 1500 1498 1496 1495 1495 1495 1495 1495 1495 1496 1497 1498 1499 1499 1500 1500 1501 1502 1503 1505 1506 1507 1508 1508 1509 1510 1510 1510 1510 1510 1510 1510 1510 1511 1511 1511 1513 1514 1515 1516 1517 1519 1520 1521 1522 1523 1524 1525 1526 1526 1527 1527 1528 1529 1530 1532 1533 1534 1535 1536 1536 1536 1536 1537 1538 1539 1540 1541 1541 1541 1542
1524 1521 1520 1518 1517 1515 1513 1512 1510 1508 1507 1505 1505 1503 1502 1500 1498 1497 1496 1497 1497 1496 1496 1496 1497 1498 1499 1500 1501 1502 1503 1504 1504 1506 1507 1507 1508 1509 1509 1509 1510 1509 1509 1510 1510 1510 1511 1511 1511 1512 1513 1514 1515 1516 1517 1519 1520 1520 1521 1523 1524 1525 1526 1526 1527 1527 1528 1528 1529 1531 1532 1533 1533 1534 1535 1536 1535 1536 1537 1538 1538 1539 1539 1541 1542
1525 1522 1521 1520 1518 1517 1515 1514 1512 1510 1509 1508 1507 1506 1504 1502 1501 1500 1499 1499 1500 1499 1499 1499 1499 1500 1501 1502 1503 1504 1504 1505 1506 1507 1508 1508 1508 1509 1508 1509 1509 1508 1508 1509 1509 1510 1511 1511 1512 1512 1512 1513 1515 1515 1517 1518 1519 1520 1521 1522 1524 1524 1525 1526 1526 1527 1528 1528 1529 1530 1531 1532 1533 1533 1534 1534 1534 1535 1536 1537 1537 1538 1539 1540 1541
1526 1524 1522 1521 1520 1519 1518 1516 1514 1513 1512 1511 1510 1508 1507 1505 1504 1504 1503 1503 1503 1502 1502 1502 1502 1503 1503 1504 1505 1506 1506 1507 1508 1509 1509 1509 1509 1509 1509 1510 1511 1511 1511 1511 1511 1512 1511 1511 1511 1511 1512 1514 1515 1516 1516 1517 1519 1520 1521 1522 1523 1524 1524 1525 1526 1526 1527 1528 1529 1530 1530 1531 1532 1532 1533 1533 1533 1534 1535 1536 1536 1537 1538 1539 1539
1528 1526 1524 1523 1522 1521 1520 1518 1517 1515 1514 1513 1512 1511 1510 1509 1508 1507 1507 1506 1506 1506 1505 1505 1505 1505 1506 1507 1507 1508 1509 1509 1509 1510 1509 1510 1510 1511 1511 1512 1513 1513 1512 1512 1512 1512 1512 1512 1512 1512 1513 1515 1515 1516 1517 1517 1519 1521 1522 1522 1523 1523 1524 1525 1525 1526 1526 1527 1528 1528 1529 1530 1531 1531 1532 1532 1532 1533 1534 1534 1535 1536 1536 1537 1537
1530 1528 1526 1525 1524 1523 1522 1521 1519 1518 1517 1515 1514 1513 1512 1512 1511 1510 1510 1510 1509 1509 1509 1509 1508 1508 1508 1509 1509 1510 1510 1511 1511 1511 1511 1511 1511 1512 1513 1513 1513 1513 1512 1512 1513 1513 1513 1513 1514 1514 1515 1516 1516 1517 1517 1518 1520 1521 1522 1522 1523 1523 1524 1524 1525 1525 1526 1526 1527 1528 1528 1529 1530 1530 1530 1531 1531 1532 1532 1533 1534 1535 1535 1536 1536
1532 1530 1529 1527 1526 1525 1524 1523 1522 1521 1520 1518 1517 1516 1515 1514 1514 1514 1513 1513 1512 1512 1512 1511 1511 1511 1511 1511 1511 1511 1512 1512 1512 1512 1512 1512 1512 1513 1513 1514 1514 1513 1513 1513 1514 1514 1514 1515 1515 1515 1517 1518 1518 1518 1518 1520 1521 1522 1522 1523 1523 1523 1523 1524 1524 1525 1525 1526 1527 1527 1528 1529 1529 1529 1529 1530 1530 1531 1531 1532 1533 1534 1535 1535 1536
1534 1533 1531 1529 1529 1528 1526 1525 1524 1523 1523 1522 1520 1519 1519 1518 1518 1517 1516 1516 1515 1515 1515 1514 1514 1513 1513 1513 1513 1513 1514 1514 1514 1514 1514 1514 1513 1514 1514 1514 1514 1515 1515 1516 1516 1516 1516 1517 1516 1517 1518 1518 1518 1519 1520 1521 1521 1522 1522 1523 1523 1523 1523 1524 1524 1525 1525 1525 1526 1527 1528 1528 1529 1529 1529 1529 1530 1530 1531 1532 1532 1533 1534 1535 1536
1537 1535 1534 1533 1532 1530 1529 1528 1527 1526 1525 1525 1524 1523 1522 1522 1521 1521 1520 1520 1519 1518 1517 1517 1516 1516 1516 1516 1516 1515 1516 1516 1515 1515 1516 1515 1515 1515 1515 1515 1516 1516 1517 1517 1517 1517 1518 1518 1518 1519 1519 1519 1520 1520 1521 1521 1522 1522 1522 1523 1523 1523 1524 1524 1525 1525 1525 1526 1527 1527 1528 1529 1529 1529 1529 1529 1530 1530 1531 1531 1532 1532 1533 1534 1536
1539 1538 1537 1536 1534 1533 1532 1531 1530 1529 1528 1527 1526 1525 1525 1524 1524 1523 1523 1523 1522 1521 1520 1520 1519 1519 1518 1518 1518 1518 1518 1518 1517 1517 1517 1517 1517 1516 1516 1516 1517 1517 1518 1519 1519 1519 1520 1520 1520 1520 1520 1520 1521 1521 1521 1522 1522 1522 1522 1522 1523 1524 1524 1524 1525 1525 1526 1526 1527 1528 1529 1530 1530 1529 1529 1529 1530 1530 1530 1531 1531 1532 1533 1534 1535
1542 1541 1539 1538 1537 1536 1535 1534 1533 1532 1532 1531 1530 1528 1528 1527 1526 1526 1525 1525 1524 1524 1523 1523 1522 1522 1521 1520 1520 1520 1520 1520 1519 1518 1518 1518 1518 1518 1518 1518 1518 1518 1519 1519 1520 1520 1520 1520 1521 1521 1521 1521 1521 1521 1522 1522 1522 1522 1522 1522 1523 1524 1524 1525 1526 1526 1527 1527 1528 1529 1530 1531 1531 1531 1530 1530 1530 1530 1530 1530 1531 1531 1532 1533 1534
1543 1542 1542 1541 1540 1539 1538 1537 1536 1535 1534 1533 1532 1531 1530 1529 1529 1528 1528 1527 1527 1526 1525 1525 1524 1524 1523 1523 1522 1522 1521 1521 1521 1520 1520 1520 1519 1519 1519 1519 1519 1519 1520 1520 1520 1520 1520 1521 1521 1521 1521 1521 1522 1522 1522 1522 1522 1522 1522 1523 1523 1524 1525 1526 1526 1527 1527 1528 1530 1531 1531 1532 1532 1531 1531 1531 1531 1531 1531 1531 1531 1531 1532 1533 1533
1544 1544 1543 1543 1543 1542 1540 1539 1539 1538 1537 1536 1535 1534 1533 1532 1531 1530 1530 1529 1529 1528 1528 1527 1526 1526 1525 1524 1524 1524 1523 1523 1522 1522 1522 1521 1521 1521 1521 1520 1520 1520 1521 1521 1521 1520 1521 1521 1521 1521 1521 1522 1522 1522 1521 1521 1521 1522 1522 1523 1524 1525 1525 1526 1526 1527 1529 1530 1531 1531 1531 1531 1531 1531 1531 1532 1532 1532 1532 1532 1532 1532 1532 1532 1533
1546 1546 1545 1545 1544 1544 1543 1542 1541 1540 1540 1539 1538 1537 1536 1535 1534 1534 1533 1532 1532 1531 1531 1530 1529 1528 1528 1527 1526 1526 1525 1525 1524 1523 1523 1523 1522 1522 1522 1522 1521 1521 1522 1522 1521 1521 1521 1521 1521 1521 1521 1522 1522 1522 1521 1522 1522 1523 1523 1523 1524 1525 1525 1526 1527 1529 1530 1531 1531 1531 1531 1531 1531 1531 1532 1533 1533 1533 1533 1533 1533 1533 1533 1534 1534
1548 1548 1548 1547 1547 1546 1545 1544 1543 1542 1542 1541 1541 1540 1539 1538 1537 1536 1536 1535 1534 1534 1533 1533 1532 1531 1531 1530 1529 1528 1527 1526 1526 1525 1525 1525 1524 1524 1523 1523 1523 1523 1523 1523 1522 1521 1521 1521 1521 1522 1522 1522 1522 1522 1522 1523 1523 1524 1524 1525 1525 1526 1527 1528 1529 1530 1530 1531 1531 1530 1530 1531 1531 1532 1532 1533 1533 1533 1533 1534 1534 1535 1535 1536 1536
1550 1550 1550 1550 1549 1548 1548 1547 1546 1545 1544 1543 1543 1542 1541 1541 1540 1539 1538 1537 1537 1536 1536 1535 1535 1534 1533 1532 1532 1531 1530 1529 1528 1527 1527 1526 1526 1526 1525 1525 1525 1525 1525 1524 1524 1523 1523 1522 1522 1523 1523 1523 1523 1523 1523 1524 1525 1526 1526 1527 1527 1527 1528 1528 1529 1529 1530 1530 1530 1530 1531 1531 1532 1532 1532 1532 1533 1533 1533 1534 1534 1535 1535 1536 1537
1552 1552 1552 1552 1551 1551 1551 1550 1549 1548 1547 1546 1545 1544 1544 1543 1542 1541 1541 1540 1539 1539 1538 1537 1536 1536 1535 1534 1534 1533 1532 1531 1530 1529 1529 1528 1528 1528 1527 1527 1526 1526 1526 1526 1525 1525 1525 1524 1524 1524 1525 1525 1525 1525 1525 1526 1527 1527 1528 1528 1528 1528 1528 1528 1529 1529 1529 1530 1530 1531 1531 1531 1532 1532 1533 1533 1532 1532 1533 1533 1534 1535 1535 1536 1537
1554 1554 1553 1553 1553 1553 1553 1552 1552 1551 1550 1548 1547 1546 1546 1546 1545 1544 1543 1543 1542 1541 1540 1539 1538 1538 1537 1536 1535 1534 1534 1533 1532 1532 1531 1530 1530 1529 1529 1528 1528 1528 1528 1527 1527 1527 1526 1526 1526 1526 1526 1527 1527 1527 1527 1527 1528 1528 1528 1528 1528 1528 1528 1528 1529 1529 1529 1530 1530 1531 1531 1532 1533 1533 1533 1533 1532 1532 1532 1533 1534 1535 1535 1536 1537
1555 1555 1555 1555 1554 1554 1554 1554 1553 1553 1553 1552 1550 1549 1548 1548 1547 1547 1546 1545 1544 1543 1542 1541 1540 1539 1538 1537 1537 1536 1535 1535 1534 1534 1533 1532 1532 1531 1531 1530 1529 1529 1529 1528 1528 1528 1528 1528 1528 1528 1528 1528 1528 1528 1528 1528 1528 1528 1528 1529 1529 1528 1528 1529 1529 1529 1530 1530 1530 1531 1532 1533 1533 1533 1533 1533 1533 1533 1533 1534 1534 1535 1535 1536 1537
1557 1557 1557 1556 1556 1556 1556 1556 1555 1555 1554 1554 1553 1553 1551 1550 1549 1549 1548 1548 1547 1546 1545 1543 1542 1541 1540 1539 1538 1538 1537 1537 1536 1535 1535 1534 1533 1533 1532 1532 1531 1530 1530 1529 1529 1529 1529 1529 1528 1528 1529 1529 1529 1529 1529 1529 1529 1529 1529 1529 1529 1529 1529 1529 1529 1530 1531 1531 1531 1532 1532 1533 1533 1533 1533 1534 1534 1534 1534 1533 1534 1534 1534 1536 1537
1557 1558 1558 1558 1558 1558 1557 1557 1557 1556 1556 1555 1555 1555 1554 1553 1552 1551 1550 1549 1548 1547 1546 1545 1544 1543 1542 1541 1540 1539 1538 1538 1537 1537 1536 1535 1535 1534 1534 1533 1532 1532 1531 1531 1531 1530 1530 1530 1530 1530 1529 1529 1529 1530 1529 1530 1530 1529 1529 1529 1529 1529 1529 1530 1530 1530 1531 1531 1531 1532 1533 1533 1532 1533 1533 1533 1533 1534 1534 1534 1534 1534 1535 1536 1537
1558 1558 1559 1559 1559 1559 1559 1559 1558 1558 1557 1557 1556 1556 1556 1555 1554 1553 1552 1551 1550 1549 1548 1547 1546 1545 1543 1542 1541 1540 1539 1538 1538 1538 1537 1537 1536 1536 1535 1534 1534 1533 1533 1533 1533 1533 1532 1532 1532 1531 1531 1531 1530 1530 1530 1530 1530 1530 1530 1530 1530 1530 1530 1530 1530 1530 1531 1531 1531 1532 1532 1532 1533 1533 1533 1533 1533 1534 1534 1535 1535 1536 1536 1537 1538
1561 1560 1560 1560 1560 1560 1560 1560 1559 1559 1559 1558 1558 1557 1557 1556 1556 1555 1554 1554 1553 1552 1551 1549 1548 1546 1545 1544 1543 1541 1540 1539 1539 1538 1538 1538 1538 1537 1536 1536 1536 1535 1535 1535 1535 1534 1533 1533 1532 1532 1531 1531 1531 1531 1531 1531 1531 1531 1530 1530 1530 1530 1531 1531 1531 1531 1531 1532 1532 1532 1532 1533 1533 1534 1534 1534 1534 1535 1536 1536 1537 1537 1537 1538 1538
1563 1563 1562 1562 1561 1561 1561 1561 1560 1560 1560 1560 1559 1559 1558 1557 1557 1556 1556 1555 1555 1554 1553 1552 1550 1549 1547 1546 1545 1543 1542 1541 1540 1539 1539 1539 1539 1538 1538 1538 1537 1537 1537 1536 1536 1535 1534 1533 1532 1532 1532 1532 1532 1532 1532 1531 1531 1531 1531 1531 1531 1531 1531 1531 1531 1531 1532 1532 1532 1532 1533 1533 1534 1534 1534 1534 1535 1536 1536 1536 1536 1536 1536 1537 1538
1563 1563 1563 1563 1563 1563 1563 1562 1562 1562 1562 1561 1561 1560 1559 1559 1558 1558 1557 1557 1556 1556 1555 1554 1552 1551 1550 1548 1547 1545 1544 1543 1542 1541 1541 1540 1540 1540 1539 1539 1539 1539 1538 1538 1537 1536 1535 1534 1534 1533 1533 1533 1533 1533 1532 1531 1531 1530 1530 1531 1531 1530 1530 1531 1531 1532 1533 1533 1533 1533 1533 1534 1534 1534 1535 1535 1536 1536 1536 1536 1536 1536 1536 1537 1538
1563 1563 1563 1564 1564 1565 1564 1564 1564 1563 1563 1563 1562 1561 1561 1561 1560 1559 1559 1558 1557 1557 1556 1555 1554 1553 1552 1551 1549 1548 1547 1546 1545 1544 1544 1543 1543 1542 1542 1541 1541 1541 1540 1539 1539 1538 1537 1536 1535 1535 1535 1534 1533 1533 1532 1532 1531 1531 1531 1531 1530 1530 1531 1531 1532 1532 1533 1533 1533 1534 1534 1534 1535 1535 1536 1536 1536 1536 1537 1537 1537 1537 1538 1538 1539
1565 1565 1564 1564 1565 1566 1566 1565 1565 1565 1564 1564 1564 1563 1562 1562 1561 1561 1560 1559 1559 1558 1558 1556 1555 1554 1553 1552 1551 1550 1549 1549 1548 1547 1546 1546 1545 1545 1544 1543 1543 1542 1542 1541 1540 1539 1538 1538 1536 1536 1535 1534 1534 1533 1532 1532 1531 1531 1531 1531 1531 1531 1532 1532 1533 1533 1534 1534 1534 1535 1535 1536 1536 1536 1536 1536 1537 1537 1537 1538 1538 1538 1538 1538 1538
1567 1567 1566 1566 1567 1567 1567 1566 1566 1566 1565 1565 1565 1565 1564 1563 1563 1562 1562 1561 1560 1560 1559 1558 1557 1556 1555 1553 1552 1551 1550 1550 1550 1549 1548 1548 1547 1546 1546 1545 1544 1544 1543 1542 1541 1540 1540 1539 1538 1537 1536 1535 1534 1533 1532 1532 1532 1532 1532 1533 1533 1533 1533 1534 1534 1534 1535 1535 1535 1536 1536 1536 1537 1537 1537 1537 1537 1537 1537 1537 1537 1538 1538 1538 1538
1568 1568 1568 1568 1568 1568 1568 1567 1567 1567 1566 1566 1566 1566 1565 1565 1564 1564 1563 1562 1561 1561 1560 1559 1558 1557 1556 1555 1554 1552 1552 1552 1551 1551 1550 1549 1548 1548 1547 1546 1545 1545 1544 1543 1542 1541 1540 1540 1539 1537 1536 1535 1535 1534 1533 1533 1533 1533 1533 1533 1533 1534 1534 1534 1535 1535 1535 1535 1536 1536 1536 1536 1537 1537 1537 1537 1537 1537 1537 1537 1538 1538 1539 1539 1539
1570 1570 1569 1569 1569 1569 1569 1569 1568 1568 1567 1567 1567 1567 1566 1566 1565 1565 1564 1563 1563 1562 1561 1560 1559 1558 1557 1556 1555 1554 1553 1553 1553 1552 1551 1550 1550 1549 1548 1547 1546 1545 1545 1544 1542 1541 1540 1540 1539 1538 1536 1536 1535 1535 1535 1535 1534 1534 1534 1534 1534 1534 1535 1535 1535 1535 1535 1536 1535 1535 1535 1536 1536 1536 1537 1537 1538 1538 1538 1538 1539 1539 1539 1539 1539
1570 1570 1570 1570 1570 1570 1570 1570 1569 1569 1568 1568 1567 1567 1567 1566 1566 1565 1565 1564 1563 1563 1562 1561 1560 1559 1558 1557 1556 1555 1554 1554 1554 1553 1552 1551 1550 1549 1549 1548 1547 1546 1545 1544 1543 1541 1540 1540 1540 1538 1537 1536 1535 1535 1535 1535 1535 1535 1535 1535 1534 1535 1535 1535 1535 1535 1535 1535 1535 1535 1535 1536 1537 1537 1537 1538 1538 1538 1538 1538 1539 1539 1539 1539 1539
1571 1571 1571 1571 1571 1571 1571 1571 1570 1570 1569 1568 1568 1568 1567 1567 1566 1566 1565 1565 1564 1563 1562 1562 1561 1560 1559 1558 1557 1556 1556 1555 1554 1553 1553 1552 1551 1550 1550 1549 1548 1547 1546 1545 1543 1541 1540 1540 1539 1538 1537 1537 1536 1536 1535 1535 1535 1535 1535 1535 1534 1535 1535 1535 1534 1534 1535 1535 1535 1536 1536 1537 1537 1538 1538 1538 1538 1538 1538 1538 1539 1539 1539 1540 1539
1571 1572 1572 1572 1572 1572 1571 1571 1571 1570 1570 1569 1569 1568 1568 1567 1567 1566 1566 1565 1564 1564 1563 1562 1561 1560 1560 1559 1558 1557 1556 1555 1555 1554 1553 1552 1552 1551 1550 1549 1548 1547 1546 1545 1543 1541 1540 1540 1539 1538 1537 1537 1537 1536 1536 1535 1534 1534 1534 1534 1534 1534 1534 1533 1533 1533 1534 1535 1535 1536 1537 1537 1537 1538 1537 1537 1537 1538 1538 1538 1538 1538 1539 1539 1539
1572 1572 1572 1572 1572 1572 1572 1571 1571 1571 1570 1570 1569 1569 1568 1568 1567 1567 1566 1565 1565 1564 1563 1562 1562 1561 1560 1559 1558 1557 1556 1555 1555 1554 1553 1553 1552 1551 1550 1549 1548 1547 1547 1545 1543 1542 1541 1540 1539 1538 1537 1536 1536 1535 1535 1535 1534 1534 1534 1534 1534 1534 1533 1532 1532 1533 1534 1534 1534 1535 1536 1537 1537 1536 1536 1536 1537 1537 1537 1538 1538 1538 1538 1538 1538
1572 1572 1572 1572 1572 1572 1572 1571 1571 1570 1570 1570 1570 1569 1568 1568 1567 1567 1566 1565 1565 1564 1563 1562 1561 1561 1560 1559 1558 1557 1556 1555 1554 1554 1553 1553 1552 1551 1550 1549 1548 1548 1547 1546 1544 1542 1541 1540 1539 1538 1537 1536 1535 1535 1534 1534 1534 1534 1533 1533 1533 1532 1532 1532 1532 1532 1533 1533 1534 1534 1534 1535 1536 1536 1536 1536 1536 1537 1537 1537 1537 1537 1537 1538 1538
1572 1572 1572 1572 1572 1572 1571 1571 1571 1570 1570 1570 1569 1569 1568 1568 1567 1567 1566 1565 1565 1564 1563 1562 1561 1560 1560 1559 1558 1557 1556 1555 1554 1553 1553 1552 1552 1551 1550 1549 1548 1547 1547 1546 1544 1543 1542 1541 1539 1538 1537 1536 1535 1534 1533 1533 1533 1533 1532 1532 1531 1531 1531 1531 1531 1531 1532 1532 1533 1533 1533 1534 1534 1534 1534 1534 1535 1536 1536 1537 1537 1537 1537 1537 1538
1572 1572 1572 1572 1571 1571 1571 1571 1571 1570 1570 1570 1569 1569 1568 1568 1567 1567 1566 1565 1564 1564 1563 1562 1561 1560 1559 1559 1558 1557 1556 1555 1554 1553 1553 1552 1551 1551 1550 1549 1548 1547 1546 1546 1545 1543 1542 1541 1540 1538 1537 1536 1535 1534 1533 1533 1532 1532 1531 1531 1531 1531 1530 1530 1530 1530 1531 1531 1531 1532 1532 1532 1533 1533 1533 1533 1534 1534 1535 1536 1536 1537 1537 1537 1537
1572 1572 1572 1572 1571 1571 1571 1571 1570 1570 1570 1569 1569 1568 1568 1567 1567 1566 1566 1565 1564 1563 1562 1562 1561 1560 1559 1558 1558 1557 1556 1555 1554 1553 1552 1552 1551 1550 1549 1549 1548 1547 1546 1546 1545 1543 1542 1540 1539 1538 1537 1536 1535 1534 1533 1533 1532 1532 1531 1530 1530 1530 1529 1529 1529 1529 1529 1529 1530 1530 1530 1531 1531 1532 1532 1533 1533 1533 1534 1534 1535 1535 1536 1536 1536
1571 1571 1571 1571 1571 1571 1570 1570 1570 1569 1569 1569 1568 1568 1567 1567 1566 1566 1565 1564 1564 1563 1562 1561 1561 1560 1559 1558 1557 1557 1556 1554 1553 1553 1552 1551 1550 1549 1549 1548 1548 1547 1546 1545 1545 1544 1542 1540 1539 1538 1537 1536 1535 1534 1533 1532 1532 1531 1530 1530 1529 1529 1528 1528 1527 1527 1527 1527 1528 1528 1529 1529 1530 1530 1531 1531 1532 1532 1533 1533 1533 1534 1534 1535 1536